Location: *
(40.9167°N, 9.5000°E)
Time: 03:36:06
(UTC+00:00)

CZ-4C R/B - Pass Details

Date: 09 April 2020
Orbit: 637 x 1365 km, 63.4° (Epoch: 31 May)

Event Time Altitude Azimuth Distance (km) Brightness Sun altitude
Rises 22:40:05 0° 320° (NW) 3,940 6.4 -40.1°
Reaches altitude 10° 22:42:42 10° 316° (NW) 3,072 5.6 -40.2°
Enters shadow 22:47:01 36° 295° (WNW) 1,861 4.0 -40.3°
